Terminal Aerodrome Forecast
Issued by NWS Upton, NY

Home | Current Version | Previous Version | Text Only | Print | Product List | Glossary On
Versions: 1 2 3 4 5 6 7 8 9 10 11 12 13 14 15 16 17 18 19 20 21 22 23 24 25 26 27 28 29 30 31 32 33
000
FTUS41 KOKX 270800 AAA
TAFJFK
TAF AMD
KJFK 270836Z 2709/2812 36024G34KT 1SM -SN OVC008
      TEMPO 2709/2712 1/2SM SN FZFG BLSN VV005
     FM271600 33023G34KT 1SM -SN BLSN OVC008
     FM272200 33020G32KT 2SM -SN BLSN OVC020
     FM280200 32018G28KT 2SM -SHSN OVC035
     FM280500 32016G24KT P6SM SCT040 SCT100=

USA.gov is the U.S. government's official web portal to all federal, state and local government web resources and services.